JO-97
1 43803U 18099AX  25004.43977086  .00018920  00000-0  10112-2 0  9997
2 43803  97.4922  65.3275 0007874 338.3887  21.7012 15.15107939333088
Suomi 100
1 43804U 18099AY  25004.11244789  .00014372  00000-0  80443-3 0  9992
2 43804  97.4988  64.6466 0013279 336.7671  23.2958 15.13472991332990
ISAT
1 43879U 18111D   25004.65198096  .00025697  00000-0  11599-2 0  9994
2 43879  97.6058 276.5556 0012396  33.3212 326.8801 15.20904187327905
UWE-4
1 43880U 18111E   25004.17880338  .00022663  00000-0  10936-2 0  9994
2 43880  97.5991 275.4408 0015826  41.9114 318.3328 15.18580073329838
Sparrow
1 43881U 18111F   25004.73712335  .00025583  00000-0  11283-2 0  9998
2 43881  97.6175 279.0050 0010901  67.0074 293.2310 15.21715085328018
Prox-1
1 44339U 19036A   25004.40111884  .00017579  00000-0  25421-2 0  9995
2 44339  23.9995   3.6780 0008119 102.1624 257.9781 14.74562032294896
SONATE
1 44400U 19038Q   25004.49269177  .00064090  00000-0  10135-2 0  9990
2 44400  97.7124  16.1035 0013761  99.6611 260.6197 15.53145742305107
Taurus 1
1 44530U 19059C   25004.83095343  .00013386  00000-0  26853-2 0  9993
2 44530  98.5897 137.4747 0010299 156.7764 203.3903 14.61797067281159
Duchifat 3
1 44854U 19089C   25004.79654337  .00036354  00000-0  11977-2 0  9995
2 44854  36.9487 253.5326 0011891 333.1130  26.9004 15.30511212278946
TO-108
1 44881U 19093C   25004.87427440  .00003129  00000-0  37281-3 0  9993
2 44881  97.8102  83.7254 0014622  27.6801 332.5189 14.84951232272968
FloripaSat 1
1 44885U 19093G   25004.74278613  .00008960  00000-0  81729-3 0  9993
2 44885  97.8275  92.3251 0011511  11.8061 348.3427 14.95279796273436
RS-44
1 44909U 19096E   25004.42720660  .00000031  00000-0  86558-4 0  9999
2 44909  82.5231 331.0473 0216566 300.8958  57.1007 12.79737538234718
UPMSat 2
1 46276U 20061E   25004.87934442  .00048099  00000-0  88859-3 0  9997
2 46276  97.2689  76.3223 0001967 107.8546 252.2919 15.48931068241221
AmicalSat
1 46287U 20061R   25004.60262931  .01184561  77623-3  19354-2 0  9994
2 46287  97.3003  82.8996 0004740 288.2970  71.7795 16.03457406240866
SALSAT
1 46495U 20068K   25004.56031405  .00012478  00000-0  60159-3 0  9995
2 46495  97.8437 336.0140 0012168 352.2254   7.8789 15.18800174234818
CubeSX-Sirius-HSE
1 47951U 21022V   25004.88043957  .00082327  00000-0  16606-2 0  9991
2 47951  97.4381 270.9294 0011387 122.8586 237.3761 15.46172309209496
CubeSX-HSE
1 47952U 21022W   25004.80549326  .00061414  00000-0  12308-2 0  9994
2 47952  97.4378 271.0102 0011467 122.6036 237.6322 15.46447311209494
KSU-Cubesat
1 47954U 21022Y   25004.69864720  .00105142  00000-0  13736-2 0  9994
2 47954  97.4376 274.0025 0010730 111.1733 249.0670 15.58237875209397
GRBAlpha
1 47959U 21022AD  25004.82915427  .00058981  00000-0  11850-2 0  9998
2 47959  97.4381 271.2013 0011219 122.3898 237.8439 15.46388327208329
Orbicraft-Zorkiy
1 47960U 21022AE  25004.80093954  .00092973  00000-0  14418-2 0  9992
2 47960  97.4382 273.6889 0010758 114.3092 245.9286 15.53618035209144
TUBIN
1 48900U 21059X   25004.78264663  .00040662  00000-0  87979-3 0  9992
2 48900  97.6630 163.5084 0005422  86.8456 273.3412 15.44350629195872
LEDSAT
1 49069U 21073D   25004.89972966  .00050038  00000-0  12306-2 0  9998
2 49069  97.4115  82.3592 0013266 286.2686  73.7100 15.40380414187321
CUTE
1 49263U 21088D   25004.45233062  .00052456  00000-0  14401-2 0  9993
2 49263  97.4717  76.9789 0011042  90.8991 269.3518 15.37012874180350
TeikyoSat 4
1 49396U 21102B   25004.39054759  .00004912  00000-0  33673-3 0  9991
2 49396  97.4340  48.3720 0011746 314.0284  45.9975 15.06429563173028
Z-Sat
1 49399U 21102E   25004.83938403  .00009314  00000-0  54236-3 0  9999
2 49399  97.4045  51.0485 0017253 285.1163  74.8159 15.12107602173428
KOSEN 1
1 49402U 21102H   25004.70972270  .00010346  00000-0  52881-3 0  9991
2 49402  97.3959  53.2888 0015348 263.0480  96.9008 15.16752395173637
HO-113
1 50466U 21131B   25004.83746575  .00002121  00000-0  68141-3 0  9994
2 50466  98.5183  94.9742 0003359 233.9086 126.1791 14.40424553159029
IRIS-A
1 51044U 22002BN  25004.46627610  .00070135  00000-0  11807-2 0  9998
2 51044  97.3539  78.3558 0004618  36.2010 323.9554 15.51467153165392
Foresail-1
1 52766U 22057AL  25004.36259413  .00064817  00000-0  10917-2 0  9992
2 52766  97.5977 143.3564 0005846 131.0137 229.1621 15.51468499145417
SNUGLITE 2
1 52899U 22065F   25004.33141879  .00003388  00000-0  67923-3 0  9997
2 52899  98.1438 148.1447 0006667 239.5069 120.5474 14.62374377133640
IO-117
1 53106U 22080B   24357.45145358 -.00000003  00000-0  00000-0 0  9997
2 53106  70.1377 127.1156 0008284  64.6124 295.5392  6.42557665 57362
FO-118
1 54684U 22167C   25004.87127661  .00200665  00000-0  20724-2 0  9990
2 54684  97.6130 164.6290 0003043 159.9077 200.2301 15.64117896115396
SO-120
1 56992U 23084BU  25004.31966268  .00253673  00000-0  21484-2 0  9997
2 56992  97.5328 136.3779 0006328 344.3165  15.7899 15.68902960 87187
MRC-100
1 56993U 23084BV  25004.01497275  .08548719  25584-5  13938-2 0  9992
2 56993  97.5149 138.9848 0011234 300.6655  59.3533 16.33389667 87337
UmKA 1 (RS40S)
1 57172U 23091G   25004.88767741  .00013079  00000-0  75657-3 0  9999
2 57172  97.5840  61.1979 0016095 146.8586 213.3656 15.12279090 83923
CubeBel-2 (EU11S)
1 57175U 23091K   25004.84682498  .00018561  00000-0  10030-2 0  9997
2 57175  97.5835  61.5476 0013875 156.9336 203.2521 15.14665894 83948
VERONIKA
1 58261U 23174F   25004.80762138  .00048303  00000-0  12307-2 0  9998
2 58261  97.4364  85.7273 0007993 247.6295 112.4104 15.39367935 64512
KAFASAT
1 58317U 23174BP  25004.78089786  .00098348  00000-0  16177-2 0  9991
2 58317  97.4273  88.0384 0006364 223.1366 136.9388 15.51998187 64687
ENSO
1 58470U 23185J   25004.83209297  .00041963  00000-0  11180-2 0  9990
2 58470  97.3985  76.9826 0008549 284.7406  75.2891 15.38021861 60960
EIRSAT-1
1 58472U 23185L   25004.81261886  .00046833  00000-0  11323-2 0  9992
2 58472  97.3978  77.4277 0008007 284.1310  75.9046 15.40972185 60996
SONATE-2
1 59112U 24043Q   25004.32265570  .00025074  00000-0  92072-3 0  9993
2 59112  97.4958 133.4885 0011985 312.1217  47.9002 15.27856788 46419
MO-122
1 60209U 24125G   25004.56153692  .00024696  00000-0  89729-3 0  9994
2 60209  97.2958 218.5927 0022328 339.4283  20.6055 15.28034670 28062
GRBBeta
1 60237U 24128C   25004.43889417  .00008356  00000-0  67162-3 0  9997
2 60237  61.9926 263.0177 0034077  20.3070 339.9366 15.00240919 26752
Curium One
1 60242U 24128H   25004.72184839  .00009703  00000-0  75887-3 0  9991
2 60242  61.9828 261.9653 0033997  13.6711 346.5292 15.01151501 26809
ROBUSTA-3A
1 60243U 24128J   25004.41767601  .00012858  00000-0  10087-2 0  9997
2 60243  61.9894 263.3986 0032166  11.3929 348.7882 15.00865503 26757
CatSat
1 60246U 24125J   25004.52297268  .00019049  00000-0  72989-3 0  9995
2 60246  97.2757 219.1665 0045488 289.7216  69.9118 15.25583593 26155
CySat-1
1 61501U 98067WZ  25004.29525432  .01693232  20538-2  20295-2 0  9992
2 61501  51.6203  26.8338 0011231  45.1230 315.0693 16.08019773 13839
AO-123
1 61781U 24199AY  25004.78384525  .00014567  00000-0  59046-3 0  9991
2 61781  97.3771 234.6260 0018477  33.1835 327.0558 15.24587626 53118
